Weather History for KBDR - December, 2000

Change the Weather History Date:

Thursday, December 14, 2000

  Actual Average Record
Temperature  
Mean Temperature 38 °F 36 °F  
Max Temperature 43 °F 43 °F 58 °F (1991)
Min Temperature 33 °F 29 °F 9 °F (1976)
Degree Days  
Heating Degree Days 27 29  
Month to date heating degree days 378  
Since 1 July heating degree days 1352  
Cooling Degree Days 0 0  
Month to date cooling degree days 0  
Year to date cooling degree days 825  
Moisture  
Dew Point 34 °F    
Average Humidity 87    
Maximum Humidity 100    
Minimum Humidity 61    
Precipitation  
Precipitation 0.51 in 0.10 in 2.05 in (1954)
Month to date precipitation 1.59  
Year to date precipitation 41.00  
Snow  
Snow 0.00 in 0.10 in 5.00 in (2013)
Month to date snowfall 1.6  
Since 1 July snowfall 2.3  
Snow Depth -    
Sea Level Pressure  
Sea Level Pressure 30.18 in    
Wind  
Wind Speed 13 mph (NNE)    
Max Wind Speed 22 mph    
Max Gust Speed 29 mph    
Visibility 8 miles    
Events Rain    
T = Trace of Precipitation, MM = Missing Value Source: NWS Daily Summary

Daily Weather History Graph

Daily Weather History Graph

Search for Another Location

Airport or City:

Trip Planner

Search our weather history database for the weather conditions in past years. The results will help you decide how hot, cold, wet, or windy it might be!

Date:

Astronomy

Dec. 14, 2000 Rise Set
Actual Time 7:10 AM EST 4:24 PM EST
Civil Twilight 6:39 AM EST 4:55 PM EST
Nautical Twilight 6:04 AM EST 5:30 PM EST
Astronomical Twilight 5:30 AM EST 6:03 PM EST
Moon 8:15 PM EST (12/14) 10:15 AM EST (12/14)
Length of Visible Light 10h 16m
Length of Day
9h 13m
Waning Gibbous, 85% of the Moon is Illuminated
Dec 14
Waning Gibbous
Dec 17
Last Quarter
Dec 25
New
Jan 2
First Quarter
Jan 9
Full

Hourly Weather History & Observations

Time (EST) Temp. Windchill Dew Point Humidity Pressure Visibility Wind Dir Wind Speed Gust Speed Precip Events Conditions
12:54 AM 33.1 °F 24.9 °F 21.0 °F 61% 30.53 in 10.0 mi ESE 10.4 mph - N/A   Overcast
1:54 AM 34.0 °F 25.5 °F 25.0 °F 70% 30.48 in 10.0 mi ESE 11.5 mph - 0.00 in   Overcast
2:38 AM 35.6 °F 26.2 °F 28.4 °F 75% 30.44 in 10.0 mi East 15.0 mph - 0.00 in Rain Light Rain
2:54 AM 35.1 °F 25.5 °F 30.0 °F 82% 30.41 in 10.0 mi East 15.0 mph - 0.00 in Rain Light Rain
3:07 AM 35.6 °F 26.6 °F 30.2 °F 81% 30.43 in 7.0 mi ESE 13.8 mph - 0.01 in Rain Rain
3:42 AM 35.6 °F 25.5 °F 32.0 °F 87% 30.38 in 6.0 mi ESE 17.3 mph - 0.06 in Rain Light Rain
3:54 AM 36.0 °F 26.0 °F 32.0 °F 86% 30.37 in 7.0 mi East 17.3 mph - 0.07 in Rain Light Rain
4:35 AM 37.4 °F 26.9 °F 33.8 °F 87% 30.29 in 10.0 mi East 20.7 mph 25.3 mph 0.02 in Rain Light Rain
4:54 AM 37.9 °F 27.3 °F 34.0 °F 86% 30.28 in 10.0 mi East 21.9 mph - 0.02 in Rain Light Rain
5:28 AM 39.2 °F 29.3 °F 35.6 °F 87% 30.24 in 5.0 mi ESE 20.7 mph 28.8 mph 0.02 in Rain Light Rain
5:54 AM 39.0 °F 28.8 °F 37.0 °F 93% 30.24 in 4.0 mi ESE 21.9 mph - 0.05 in Rain Light Rain
6:11 AM 39.2 °F 29.6 °F 37.4 °F 93% 30.22 in 4.0 mi East 19.6 mph - 0.00 in Rain Light Rain
6:46 AM 39.2 °F 30.5 °F 39.2 °F 100% 30.19 in 2.5 mi ENE 16.1 mph - 0.05 in Rain Rain
6:54 AM 36.0 °F 26.7 °F 35.1 °F 97% 30.19 in 2.5 mi NNE 15.0 mph - 0.08 in Rain Heavy Rain
7:00 AM 33.8 °F 24.8 °F 33.8 °F 100% 30.18 in 1.8 mi NNE 12.7 mph - 0.02 in Rain Heavy Rain
7:04 AM 33.8 °F 25.8 °F 33.8 °F 100% 30.18 in 2.0 mi NNE 10.4 mph - 0.04 in Rain Heavy Rain
7:54 AM 35.1 °F 24.8 °F 34.0 °F 96% 30.14 in 3.0 mi NE 17.3 mph - 0.17 in Rain Rain
8:09 AM 35.6 °F 24.8 °F 33.8 °F 93% 30.15 in 2.5 mi NNE 19.6 mph - 0.05 in Rain Heavy Rain
8:21 AM 35.6 °F 27.1 °F 33.8 °F 93% 30.14 in 2.5 mi NNE 12.7 mph - 0.09 in Rain Heavy Rain
8:36 AM 35.6 °F 25.5 °F 33.8 °F 93% 30.11 in 4.0 mi NE 17.3 mph - 0.11 in Rain Rain
8:46 AM 35.6 °F 26.2 °F 33.8 °F 93% 30.11 in 6.0 mi NE 15.0 mph - 0.12 in Rain Light Rain
8:54 AM 35.1 °F 25.5 °F 34.0 °F 96% 30.10 in 7.0 mi NE 15.0 mph - 0.12 in Rain Light Rain
9:26 AM 35.6 °F 25.9 °F 33.8 °F 93% 30.07 in 9.0 mi NE 16.1 mph - 0.00 in   Overcast
9:41 AM 35.6 °F 29.2 °F 33.8 °F 93% 30.08 in 10.0 mi ENE 8.1 mph - 0.00 in   Overcast
9:54 AM 36.0 °F 27.5 °F 34.0 °F 93% 30.09 in 10.0 mi North 12.7 mph - 0.00 in   Overcast
10:54 AM 37.9 °F 32.7 °F 36.0 °F 93% 30.04 in 10.0 mi North 6.9 mph - N/A   Overcast
11:09 AM 39.2 °F 33.6 °F 35.6 °F 87% 30.04 in 10.0 mi North 8.1 mph - N/A   Overcast
11:54 AM 39.0 °F 32.8 °F 36.0 °F 89% 30.02 in 10.0 mi NNE 9.2 mph - N/A   Overcast
12:42 PM 39.2 °F 35.9 °F 35.6 °F 87% 30.02 in 10.0 mi NW 4.6 mph - N/A   Overcast
12:54 PM 39.0 °F 34.8 °F 36.0 °F 89% 30.03 in 10.0 mi NW 5.8 mph - N/A   Overcast
1:54 PM 39.9 °F 35.1 °F 36.0 °F 86% 30.03 in 10.0 mi WNW 6.9 mph - N/A   Overcast
2:54 PM 39.9 °F 37.8 °F 37.0 °F 89% 30.05 in 10.0 mi WSW 3.5 mph - N/A   Overcast
3:05 PM 39.2 °F 37.0 °F 37.4 °F 93% 30.06 in 10.0 mi West 3.5 mph - N/A   Overcast
3:54 PM 42.1 °F 40.2 °F 39.9 °F 92% 30.06 in 9.0 mi West 3.5 mph - N/A   Scattered Clouds
4:54 PM 39.0 °F 36.8 °F 37.9 °F 96% 30.08 in 8.0 mi West 3.5 mph - N/A   Clear
5:54 PM 42.1 °F 35.2 °F 37.0 °F 82% 30.09 in 10.0 mi West 12.7 mph - N/A   Mostly Cloudy
6:54 PM 43.0 °F 37.2 °F 35.1 °F 74% 30.12 in 10.0 mi West 10.4 mph 19.6 mph N/A   Clear
7:54 PM 43.0 °F 36.0 °F 34.0 °F 71% 30.14 in 10.0 mi West 13.8 mph 19.6 mph N/A   Overcast
8:54 PM 41.0 °F 33.1 °F 33.1 °F 73% 30.17 in 10.0 mi West 15.0 mph 20.7 mph N/A   Scattered Clouds
9:54 PM 39.9 °F 32.9 °F 30.0 °F 68% 30.22 in 10.0 mi WNW 11.5 mph - N/A   Scattered Clouds
10:54 PM 39.9 °F 32.9 °F 28.9 °F 65% 30.25 in 10.0 mi NNW 11.5 mph - N/A   Overcast
11:54 PM 37.0 °F 29.3 °F 28.9 °F 73% 30.29 in 10.0 mi North 11.5 mph - N/A   Mostly Cloudy